Flag for Estonia Weather past 2 weeks in Tartu, Estonia

Now
75 °F

Mild.


Feels Like: 77 °F
Forecast: 56 / 87 °F
Wind: 6 mph from East

Location: Tartu/Ulenurme

Current Time: Jul 25, 2014 at 10:03:14 PM

Latest Report: Jul 25, 2014 at 8:50 PM


Visibility: N/A

Pressure: 30.12 "Hg

Humidity: 65%

Dew point: 63 °F

Location of TartuLocation

Historic Weather in Tartu — Graph

°F

Tartu temperature yesterday

Maximum temperature yesterday: 82 °F (at 12:50 PM)
Minimum temperature yesterday: 59 °F (at 2:50 AM)
Average temperature yesterday: 73 °F

Past Weeks' High & Low Weather Summary

 TemperatureHumidityPressure
High82 °F (Jul 24, 12:50 PM)94% (Jul 13, 11:50 PM)30.21 "Hg (Jul 13, 11:50 PM)
Low52 °F (Jul 11, 2:50 AM)37% (Jul 23, 2:50 PM)29.83 "Hg (Jul 13, 4:50 PM)
Average67 °F71%30.06 "Hg
* Reported Jul 10 8:50 PM — Jul 25 8:50 PM, Tartu, Weather by CustomWeather, © 2014

Note: Actual official high and low records may vary slightly from our data, if they occured in-between our weather recording intervals... More about our weather records

Advertising

Tartu weather history for previous 24 hours

 ConditionsComfort  
Time TempWeatherWind HumidityBarometerVisibility
8:50 PM
Jul 25
75 °FMild.6 mph65%30.12 "HgN/A
7:50 PM79 °FWarm.7 mph58%30.12 "HgN/A
6:50 PM81 °FSunny.1 mph48%30.12 "Hg10 mi
5:50 PM82 °FSunny.2 mph37%30.12 "Hg10 mi
4:50 PM82 °FPassing clouds.3 mph37%30.15 "HgN/A
3:50 PM82 °FSunny.2 mph40%30.15 "Hg10 mi
2:50 PM82 °FPassing clouds.5 mph40%30.18 "HgN/A
1:50 PM81 °FSunny.3 mph45%30.18 "Hg10 mi
12:50 PM79 °FSunny.3 mph48%30.18 "Hg10 mi
11:50 AM79 °FSunny.2 mph51%30.18 "Hg10 mi
10:50 AM75 °FSunny.2 mph57%30.18 "Hg10 mi
9:50 AM73 °FPassing clouds.3 mph65%30.18 "HgN/A
8:50 AM70 °FSunny.6 mph73%30.18 "Hg10 mi
7:50 AM66 °FSunny.3 mph78%30.18 "Hg10 mi
6:50 AM64 °FFog.2 mph83%30.18 "HgN/A
5:50 AM61 °FCool.1 mph94%30.18 "HgN/A
4:50 AM61 °FFog.2 mph88%30.18 "HgN/A
3:50 AM63 °FMild.1 mph83%30.15 "HgN/A
2:50 AM64 °FMild.1 mph83%30.15 "HgN/A
1:50 AM66 °FMild.No wind83%30.15 "HgN/A
12:50 AM68 °FMild.No wind78%30.15 "HgN/A
11:50 PM
Jul 24
68 °FMild.2 mph73%30.15 "HgN/A
10:50 PM70 °FMild.1 mph69%30.12 "HgN/A
Weather by CustomWeather, © 2014

See weather overviewHow to use our weather pages